Date,TemperatureHighF,TemperatureAvgF,TemperatureLowF,DewpointHighF,DewpointAvgF,DewpointLowF,HumidityHigh,HumidityAvg,HumidityLow,PressureMaxIn,PressureMinIn,WindSpeedMaxMPH,WindSpeedAvgMPH,GustSpeedMaxMPH,PrecipitationSumIn
2014-1-1,69.0,57.5,46.6,44.0,34.7,26.0,66,43,29,30.20,30.11,6,1,7,0.00
2014-1-2,68.8,58.9,52.1,36.8,31.9,26.1,48,36,29,30.16,30.04,7,2,9,0.00
2014-1-3,71.4,59.7,49.7,42.8,35.3,30.8,55,41,28,30.05,29.94,6,2,7,0.00
2014-1-4,66.9,57.4,47.3,44.9,33.2,10.6,78,44,15,30.08,29.95,7,3,10,0.00
2014-1-5,67.9,57.9,48.7,34.2,24.4,8.8,41,28,15,30.19,30.07,8,2,10,0.00
2014-1-6,65.5,54.5,47.8,39.4,34.9,28.9,56,48,36,30.26,30.15,6,2,8,0.00
2014-1-7,64.0,54.0,48.7,45.6,40.2,33.0,86,60,47,30.20,30.12,7,2,10,0.00
2014-1-8,57.5,51.5,47.5,49.8,46.7,44.0,92,84,70,30.22,30.15,17,3,20,0.00
2014-1-9,63.5,52.6,46.7,50.7,43.6,36.4,92,73,50,30.26,30.19,11,4,18,0.00
2014-1-10,65.8,54.8,47.9,50.3,44.7,38.1,89,70,47,30.30,30.18,9,2,10,0.00
2014-1-11,58.6,51.8,47.2,51.0,44.3,36.8,86,76,54,30.30,30.15,17,4,20,0.00
2014-1-12,60.9,51.4,45.9,44.9,40.1,31.3,87,67,43,30.39,30.26,10,4,13,0.00
2014-1-13,69.0,57.6,48.4,37.8,34.0,29.9,58,42,30,30.46,30.34,8,3,13,0.00
2014-1-14,70.6,62.3,54.5,34.8,28.4,20.5,45,29,18,30.45,30.31,8,4,13,0.00
2014-1-15,73.5,63.9,55.3,37.0,29.8,18.1,41,28,17,30.33,30.19,7,3,10,0.00
2014-1-16,75.2,63.7,57.0,33.4,28.6,20.9,33,27,19,30.22,30.11,6,2,8,0.00
2014-1-17,74.3,62.5,50.1,37.5,31.3,23.5,45,31,23,30.16,30.09,4,1,6,0.00
2014-1-18,74.6,62.4,53.3,34.7,29.6,24.3,46,30,18,30.15,30.05,8,2,10,0.00
2014-1-19,72.8,60.4,50.8,37.6,32.0,24.0,46,35,22,30.11,30.04,8,1,10,0.00
2014-1-20,73.2,61.0,51.3,38.9,32.1,27.5,47,35,21,30.21,30.09,7,2,9,0.00
2014-1-21,70.7,58.9,49.0,35.1,29.8,24.5,56,34,23,30.25,30.15,6,2,9,0.00
2014-1-22,76.9,63.4,52.7,35.0,24.5,16.1,41,24,12,30.16,29.90,5,2,6,0.00
2014-1-23,68.5,58.6,51.0,39.4,29.8,24.2,62,34,25,29.99,29.85,9,3,15,0.00
2014-1-24,65.8,56.3,48.4,43.3,39.3,33.6,73,54,39,30.26,29.99,5,1,7,0.00
2014-1-25,75.1,62.1,51.5,45.1,36.4,28.5,73,41,21,30.26,30.11,6,1,9,0.00
2014-1-26,73.7,61.4,50.0,44.7,36.1,28.9,82,41,27,30.11,30.01,9,2,12,0.00
2014-1-27,67.0,52.6,42.2,49.3,44.5,34.3,95,75,50,30.19,30.04,8,1,10,0.00
2014-1-28,70.8,59.1,50.3,56.4,50.6,43.4,90,74,54,30.25,30.18,7,1,8,0.00
2014-1-29,67.4,58.6,53.2,59.2,55.2,49.5,95,89,71,30.20,29.97,12,2,15,0.00
2014-1-30,59.1,52.0,48.2,49.5,44.1,41.4,88,75,55,29.97,29.85,18,7,26,0.02
2014-1-31,62.6,51.7,45.1,45.4,36.2,26.4,85,59,26,30.08,29.91,13,6,17,0.00
2014-2-1,62.8,49.7,40.9,36.8,32.3,24.6,84,54,28,30.16,30.06,14,3,15,0.00
2014-2-2,51.8,44.7,41.8,45.6,40.0,27.0,95,84,50,30.06,29.83,17,3,24,0.39
2014-2-3,56.4,45.0,40.1,44.0,39.1,35.7,95,81,56,30.09,29.97,19,6,23,0.00
2014-2-4,58.0,46.6,40.8,42.7,38.2,35.9,85,73,49,30.16,30.08,11,4,13,0.00
2014-2-5,59.3,47.4,40.9,42.7,39.4,36.6,91,75,50,30.21,30.05,14,4,23,0.01
2014-2-6,50.9,47.0,43.5,49.5,45.6,42.0,96,95,91,30.05,29.88,9,2,13,0.57
2014-2-7,53.5,50.4,47.8,49.7,47.3,44.1,94,89,83,30.10,29.97,33,8,48,0.23
2014-2-8,60.2,55.1,51.7,56.3,52.4,48.6,94,91,84,30.16,30.04,23,11,34,0.33
2014-2-9,58.9,55.6,54.2,55.9,53.9,52.4,96,94,87,30.17,30.07,24,7,32,0.45
2014-2-10,58.4,53.8,50.0,55.1,51.0,45.5,97,90,83,30.27,30.10,15,4,21,0.02
2014-2-11,63.5,52.0,43.9,53.7,47.9,42.6,97,86,67,30.24,30.16,6,1,8,0.00
2014-2-12,65.3,52.7,42.3,53.0,47.5,40.7,96,84,61,30.28,30.17,10,2,12,0.00
2014-2-13,72.1,59.1,48.2,58.7,53.0,46.6,96,81,62,30.22,30.09,7,2,9,0.00
2014-2-14,61.1,55.6,51.9,57.0,52.7,48.4,97,90,81,30.15,30.05,6,2,8,0.02
2014-2-15,61.8,54.6,51.7,55.2,50.7,48.2,92,87,76,30.05,29.97,17,2,22,0.02
2014-2-16,65.5,55.1,46.2,51.9,42.2,32.6,95,66,34,30.20,30.03,11,4,14,0.03
2014-2-17,64.5,53.1,45.1,46.0,42.5,38.7,87,69,44,30.18,30.08,12,4,16,0.00
2014-2-18,66.5,54.7,47.9,48.7,44.3,41.1,84,69,41,30.20,30.10,13,3,16,0.00
2014-2-19,66.0,56.1,49.2,49.9,45.0,38.7,93,68,43,30.20,30.10,12,4,15,0.00
2014-2-20,67.1,55.9,46.5,41.2,37.6,33.1,80,52,32,30.21,30.10,7,2,9,0.00
2014-2-21,74.4,60.4,48.2,44.2,39.0,33.5,72,47,27,30.10,29.97,9,3,14,0.00
2014-2-22,73.4,58.7,47.3,49.3,43.2,37.9,94,61,30,30.00,29.91,7,2,10,0.00
2014-2-23,72.6,56.4,44.2,50.4,45.6,38.9,96,71,39,30.01,29.94,6,2,8,0.00
2014-2-24,76.8,62.1,50.2,51.2,46.2,41.7,85,58,38,29.98,29.89,7,2,9,0.00
2014-2-25,68.8,55.5,47.2,52.5,48.4,45.6,95,79,55,29.96,29.89,15,2,20,0.00
2014-2-26,60.7,54.0,50.3,55.7,50.1,45.9,95,87,75,29.95,29.66,33,8,46,0.89
2014-2-27,62.7,56.7,51.0,51.2,48.3,42.3,93,74,52,29.90,29.48,22,7,33,0.11
2014-2-28,59.5,52.4,49.3,52.7,49.2,43.3,96,89,55,29.49,29.36,29,6,41,1.32
2014-3-1,62.0,53.8,49.1,57.5,50.5,47.2,95,89,75,29.80,29.44,11,5,20,0.55
2014-3-2,58.7,53.7,50.4,53.2,49.4,45.4,96,86,75,30.16,29.80,16,5,21,0.01
2014-3-3,58.8,53.4,48.7,51.3,47.8,44.3,92,81,70,30.15,29.96,13,2,20,0.04
2014-3-4,67.1,57.3,50.6,57.3,53.2,48.9,95,87,69,30.10,30.03,8,1,12,0.02
2014-3-5,68.1,59.7,53.2,58.2,53.5,45.3,95,81,48,30.09,29.97,22,6,28,0.03
2014-3-6,65.5,57.2,50.8,55.2,51.0,43.9,96,81,59,30.19,30.04,10,3,14,0.06
2014-3-7,70.0,57.9,49.0,47.4,44.6,41.2,82,63,42,30.17,30.09,14,4,18,0.00
2014-3-8,76.2,60.8,49.2,54.2,47.1,42.1,94,64,33,30.20,30.09,6,2,8,0.00
2014-3-9,80.3,66.2,56.1,56.2,46.3,34.5,69,50,32,30.18,30.05,12,3,16,0.00
2014-3-10,69.7,59.5,53.3,51.4,47.0,38.8,90,65,45,30.22,30.07,16,5,21,0.00
2014-3-11,69.2,58.2,49.2,44.3,35.2,28.8,71,44,26,30.19,30.02,11,4,22,0.00
2014-3-12,74.9,62.1,50.0,37.1,31.9,22.2,54,33,21,30.09,29.99,11,4,16,0.00
2014-3-13,78.7,65.2,52.6,41.9,30.5,22.6,64,29,14,30.05,29.95,11,4,13,0.00
2014-3-14,74.3,59.6,47.2,52.9,46.5,40.7,93,65,38,30.21,30.03,7,2,9,0.00
2014-3-15,81.6,67.4,54.2,53.4,43.2,33.7,79,44,22,30.29,30.20,7,2,12,0.00
2014-3-16,81.8,66.3,50.7,54.4,42.6,23.6,74,44,23,30.28,30.16,8,2,14,0.00
2014-3-17,70.3,57.2,48.2,48.3,43.8,38.6,86,63,38,30.22,29.96,14,5,17,0.00
2014-3-18,72.9,60.2,48.4,42.1,33.2,26.5,67,39,20,29.97,29.88,8,3,12,0.00
2014-3-19,77.7,62.6,50.1,43.2,35.8,29.7,53,38,24,30.07,29.95,10,2,13,0.00
2014-3-20,78.3,63.3,50.2,50.3,42.1,34.5,80,48,27,30.04,29.91,9,2,12,0.00
2014-3-21,71.3,55.9,45.4,50.5,46.1,41.0,90,72,47,29.98,29.92,13,4,16,0.00
2014-3-22,73.1,57.3,43.6,51.3,46.4,39.9,93,70,41,30.10,29.97,10,2,13,0.00
2014-3-23,73.5,57.9,47.6,52.8,47.8,42.3,91,72,46,30.16,30.07,6,2,9,0.00
2014-3-24,78.8,62.9,49.1,53.9,43.0,28.2,78,51,25,30.13,30.00,10,2,12,0.00
2014-3-25,62.3,52.9,49.0,53.4,41.2,19.0,89,67,23,30.03,29.86,18,5,22,0.06
2014-3-26,57.3,51.6,48.8,51.3,47.2,44.8,93,85,71,29.99,29.81,23,8,26,0.33
2014-3-27,62.4,54.6,48.7,49.2,46.1,43.4,89,74,58,30.14,29.98,16,7,22,0.01
2014-3-28,69.1,57.5,49.7,52.0,48.1,44.6,88,72,50,30.19,30.08,17,6,23,0.00
2014-3-29,59.7,52.9,46.8,56.1,49.9,43.9,95,89,79,30.13,29.99,14,4,20,0.38
2014-3-30,58.9,50.8,45.6,47.7,43.8,41.8,93,78,55,30.13,30.03,16,8,24,0.02
2014-3-31,53.7,47.1,43.1,46.7,42.7,40.0,95,85,70,30.08,29.83,21,6,32,0.64
2014-4-1,57.0,46.6,41.8,46.6,42.1,39.4,95,85,61,29.95,29.83,24,8,35,0.42
2014-4-2,62.7,51.0,42.1,46.4,42.3,39.6,94,74,47,30.11,29.87,9,3,16,0.13
2014-4-3,63.8,52.3,44.3,48.7,43.3,35.8,90,72,43,30.11,30.01,20,5,26,0.00
2014-4-4,56.2,49.4,46.4,49.7,45.0,41.3,94,85,64,30.06,29.95,17,7,24,0.20
2014-4-5,67.5,55.2,45.4,50.4,45.4,40.8,91,71,49,30.19,30.06,12,6,20,0.01
2014-4-6,79.5,64.0,50.3,51.9,47.4,42.3,79,57,36,30.22,30.09,7,2,12,0.00
2014-4-7,84.6,71.3,58.7,55.2,49.7,45.2,64,48,33,30.13,30.04,8,3,10,0.00
2014-4-8,86.7,70.1,58.6,59.6,53.1,45.2,80,57,33,30.08,29.98,15,3,20,0.00
2014-4-9,78.8,63.1,51.1,59.4,52.1,46.5,94,70,45,30.06,29.96,6,2,8,0.00
2014-4-10,83.6,62.1,46.6,55.0,49.2,44.6,96,69,27,30.01,29.88,6,2,9,0.00
2014-4-11,74.1,61.3,52.1,58.1,52.6,47.1,94,74,53,29.92,29.83,8,2,12,0.00
2014-4-12,71.8,56.0,47.2,53.6,47.2,43.0,88,74,49,29.94,29.84,20,7,26,0.00
2014-4-13,79.8,60.3,48.8,54.2,48.9,44.6,88,69,37,30.03,29.94,13,4,16,0.00
2014-4-14,80.7,61.4,50.9,57.1,51.1,46.7,95,73,31,30.09,30.00,7,2,9,0.00
2014-4-15,77.2,61.1,49.8,56.4,50.7,42.0,93,72,40,30.05,29.88,8,3,10,0.00
2014-4-16,84.8,64.7,49.0,53.0,48.6,45.0,89,62,27,29.91,29.80,8,3,10,0.00
2014-4-17,75.1,60.8,51.8,57.2,49.2,42.2,91,67,50,29.87,29.77,19,5,28,0.00
2014-4-18,77.5,61.4,49.5,54.7,47.4,39.3,85,62,39,29.94,29.85,14,3,15,0.00
2014-4-19,72.9,58.2,47.3,52.2,45.8,38.1,86,66,33,30.12,29.93,12,4,20,0.00
2014-4-20,83.7,65.2,50.1,54.5,46.9,32.4,93,59,16,30.14,30.04,8,3,12,0.00
2014-4-21,75.0,60.9,51.0,54.5,43.3,20.6,79,54,17,30.07,29.96,22,5,30,0.00
2014-4-22,62.0,52.9,45.9,48.7,39.6,31.7,89,63,34,30.13,29.95,24,10,31,0.00
2014-4-23,69.5,56.6,46.7,45.6,39.9,34.2,76,55,35,30.14,30.08,13,6,17,0.00
2014-4-24,72.7,58.3,49.3,53.7,49.3,45.5,88,73,50,30.10,29.97,13,5,17,0.00
2014-4-25,56.2,50.8,46.4,50.6,46.7,41.6,93,86,74,29.97,29.79,20,8,30,0.22
2014-4-26,58.7,50.7,43.9,43.2,40.9,37.2,85,70,45,30.10,29.85,23,10,28,0.00
2014-4-27,63.5,54.0,47.5,51.1,45.2,41.2,83,73,53,30.14,30.02,20,6,26,0.00
2014-4-28,76.0,61.2,48.6,50.0,40.7,33.2,74,49,24,30.22,30.13,13,5,17,0.00
2014-4-29,88.6,72.9,57.7,44.4,41.3,36.1,49,34,19,30.19,30.04,9,4,12,0.00
2014-4-30,93.9,77.8,64.1,52.0,43.4,30.2,54,31,19,30.05,29.97,15,4,18,0.00
2014-5-1,95.5,79.8,67.5,53.8,44.0,30.1,40,29,18,30.06,29.99,13,4,17,0.00
2014-5-2,88.2,72.8,56.9,54.6,42.8,29.4,73,36,23,30.06,29.97,6,2,10,0.00
2014-5-3,71.5,59.6,52.0,52.9,48.8,44.6,92,70,42,30.02,29.97,16,5,23,0.00
2014-5-4,72.4,58.3,51.2,51.9,48.3,45.7,84,71,47,30.05,30.00,18,8,21,0.00
2014-5-5,63.9,55.6,50.2,48.8,45.0,40.3,82,68,51,30.05,29.96,20,9,26,0.00
2014-5-6,67.8,56.1,47.2,46.1,43.1,40.0,83,63,38,29.96,29.88,22,10,26,0.00
2014-5-7,64.8,52.9,46.3,49.7,44.8,42.5,87,75,54,30.02,29.89,24,11,34,0.00
2014-5-8,67.4,57.5,49.5,55.7,49.9,40.1,93,76,65,30.09,30.02,15,6,21,0.00
2014-5-9,67.2,57.7,49.8,53.8,48.2,41.7,93,73,43,30.16,30.08,20,8,25,0.00
2014-5-10,69.6,57.6,49.0,45.8,41.7,39.1,78,57,34,30.15,30.02,20,8,26,0.00
2014-5-11,79.8,64.9,52.7,43.9,36.4,24.5,72,39,18,30.09,30.01,18,6,22,0.00
2014-5-12,90.1,73.6,57.7,47.8,35.5,24.6,51,28,10,30.09,30.00,11,3,14,0.00
2014-5-13,96.2,78.9,65.9,46.2,31.6,16.8,47,19,10,30.11,30.03,16,4,22,0.00
2014-5-14,98.3,82.7,66.8,43.4,36.2,26.1,42,20,12,30.11,30.00,10,4,14,0.00
2014-5-15,96.6,81.1,66.2,43.9,31.5,12.5,34,17,9,30.06,30.00,11,3,15,0.00
2014-5-16,87.5,70.3,55.5,56.4,45.4,23.3,78,44,19,30.05,29.96,13,4,18,0.00
2014-5-17,75.1,62.4,52.1,51.7,45.6,37.7,90,56,36,29.99,29.94,16,8,20,0.00
2014-5-18,68.3,59.8,52.5,51.8,47.3,40.6,80,64,47,29.98,29.94,23,10,26,0.00
2014-5-19,64.8,56.5,51.5,48.9,47.1,44.2,89,71,55,29.98,29.92,22,11,26,0.00
2014-5-20,67.8,57.8,50.4,52.7,48.8,46.0,88,73,54,30.00,29.93,17,9,23,0.00
2014-5-21,81.2,63.7,50.4,54.3,50.5,47.2,90,66,38,29.98,29.90,13,4,17,0.00
2014-5-22,80.3,63.2,50.9,56.9,52.2,47.1,91,70,44,30.02,29.90,10,2,14,0.00
2014-5-23,83.4,65.3,53.4,59.1,54.5,50.9,93,72,40,30.01,29.92,7,2,10,0.00
2014-5-24,82.8,66.7,54.3,58.5,53.2,47.6,90,65,34,29.98,29.91,13,3,16,0.00
2014-5-25,90.8,69.9,52.8,56.2,49.3,38.5,89,55,23,29.96,29.90,12,3,18,0.00
2014-5-26,91.1,71.8,54.7,55.7,44.9,19.3,81,42,18,30.00,29.93,14,4,17,0.00
2014-5-27,84.1,66.8,52.5,52.7,40.7,18.9,80,42,18,30.02,29.96,13,5,15,0.00
2014-5-28,82.3,66.2,53.1,42.6,35.1,30.0,50,33,17,30.05,29.93,11,4,15,0.00
2014-5-29,87.0,69.5,53.9,48.8,38.3,21.3,80,37,14,29.94,29.87,17,5,22,0.00
2014-5-30,76.4,59.9,49.3,52.7,48.2,44.4,93,68,37,29.96,29.87,20,4,25,0.00
2014-5-31,83.0,63.4,47.7,55.9,49.8,44.0,91,65,36,29.95,29.89,9,3,12,0.00
2014-6-1,87.2,66.3,50.8,57.7,50.1,35.0,96,64,18,29.90,29.77,14,2,18,0.00
2014-6-2,75.4,59.0,51.6,52.2,49.9,46.4,92,74,44,29.89,29.80,22,7,32,0.00
2014-6-3,80.3,63.1,50.0,56.0,50.9,46.2,91,68,42,29.92,29.84,7,1,9,0.00
2014-6-4,89.4,68.2,52.7,59.4,54.2,45.4,93,66,35,29.88,29.80,6,1,10,0.00
2014-6-5,87.4,68.1,53.3,60.3,54.9,50.7,94,67,36,29.83,29.77,6,1,10,0.00
2014-6-6,83.3,65.7,54.5,58.0,54.6,51.8,94,71,42,29.81,29.76,6,1,9,0.00
2014-6-7,88.1,68.7,55.2,59.8,55.4,52.0,91,67,37,29.82,29.76,5,1,8,0.00
2014-6-8,103.7,80.4,55.2,59.8,51.9,44.4,94,47,16,29.81,29.70,9,2,12,0.00
2014-6-9,102.1,80.5,61.8,62.3,56.0,41.6,80,47,25,29.71,29.64,6,2,9,0.00
2014-6-10,86.7,69.1,57.2,61.5,57.4,54.0,93,70,39,29.80,29.67,8,2,12,0.00
2014-6-11,83.2,66.1,53.0,58.3,53.7,49.3,90,67,40,29.88,29.77,16,3,20,0.00
2014-6-12,79.6,62.7,50.5,53.7,48.6,42.8,87,63,33,29.96,29.87,14,6,21,0.00
2014-6-13,86.1,66.7,51.7,53.3,45.2,38.0,76,50,21,29.97,29.91,13,4,17,0.00
2014-6-14,91.3,69.6,54.3,54.4,45.3,24.9,86,48,14,29.91,29.80,16,4,24,0.00
2014-6-15,73.5,59.3,52.7,50.7,48.0,43.5,84,67,43,29.86,29.77,20,10,26,0.00
2014-6-16,64.2,55.9,50.8,48.6,46.3,40.9,87,71,52,29.93,29.83,25,12,36,0.00
2014-6-17,81.4,65.1,48.5,47.3,41.6,31.2,72,45,22,29.95,29.87,13,5,18,0.00
2014-6-18,91.5,73.4,57.1,51.6,39.3,30.9,62,33,13,29.93,29.88,16,4,21,0.00
2014-6-19,85.5,70.5,52.6,56.4,50.5,33.3,92,55,19,29.97,29.90,15,3,22,0.00
2014-6-20,89.4,70.4,53.4,58.5,47.7,29.3,92,52,18,29.97,29.91,14,3,22,0.00
2014-6-21,79.2,64.5,52.2,55.2,50.7,36.7,87,63,39,29.92,29.87,6,2,9,0.00
2014-6-22,79.4,63.7,50.5,55.1,50.0,44.7,90,65,33,29.94,29.87,16,4,22,0.00
2014-6-23,87.7,67.7,51.1,58.2,50.8,43.4,92,60,27,29.94,29.90,13,2,18,0.00
2014-6-24,83.5,68.4,57.5,54.0,49.9,46.3,78,54,32,29.98,29.93,18,6,24,0.00
2014-6-25,73.6,63.4,54.1,58.3,55.0,51.3,93,75,58,30.00,29.93,18,5,25,0.00
2014-6-26,80.1,65.7,56.7,56.7,53.2,48.3,91,67,34,29.98,29.93,15,5,20,0.01
2014-6-27,84.8,68.2,54.8,61.7,56.4,50.8,91,69,44,29.98,29.91,10,3,14,0.00
2014-6-28,85.0,68.5,55.3,59.6,51.4,40.2,87,58,28,29.94,29.89,13,6,17,0.00
2014-6-29,95.8,74.6,55.3,59.8,53.8,46.9,88,54,23,29.91,29.80,7,2,12,0.00
2014-6-30,101.1,77.7,62.2,62.1,56.3,43.8,81,53,20,29.81,29.74,11,2,17,0.00
2014-7-1,87.2,69.8,58.7,61.1,57.7,55.1,92,69,39,29.82,29.75,8,2,12,0.00
2014-7-2,84.4,68.3,56.8,59.9,54.7,51.2,88,65,37,29.89,29.81,14,4,17,0.00
2014-7-3,86.3,68.8,54.6,58.9,54.8,50.3,90,65,38,29.91,29.86,7,2,9,0.00
2014-7-4,86.3,67.7,55.0,60.4,55.9,52.5,95,70,37,29.98,29.86,6,2,9,0.00
2014-7-5,92.0,69.7,53.1,60.9,55.1,47.1,94,65,33,30.05,29.97,7,1,12,0.00
2014-7-6,91.9,70.5,54.2,60.6,55.3,42.7,95,64,30,30.02,29.91,8,2,10,0.00
2014-7-7,87.7,69.1,55.0,61.7,56.7,52.4,93,69,37,29.91,29.81,7,2,9,0.00
2014-7-8,86.4,69.3,58.3,61.1,57.3,54.5,92,69,39,29.89,29.83,6,2,10,0.00
2014-7-9,85.1,69.5,58.6,61.4,57.6,54.8,90,69,42,29.92,29.82,7,2,10,0.00
2014-7-10,85.5,69.2,56.7,60.5,57.2,53.5,89,69,41,29.91,29.82,9,2,12,0.00
2014-7-11,81.2,64.9,56.3,58.4,54.9,51.6,89,72,44,30.05,29.90,19,6,26,0.00
2014-7-12,80.9,65.7,55.7,59.7,54.7,51.2,90,70,48,30.07,30.00,7,2,10,0.00
2014-7-13,87.9,69.2,56.4,61.1,57.0,52.9,91,68,40,30.02,29.86,5,1,8,0.00
2014-7-14,90.7,72.4,60.0,64.5,59.6,50.5,91,67,41,29.90,29.82,9,2,13,0.00
2014-7-15,88.1,70.6,58.6,65.9,61.0,56.3,92,74,47,29.97,29.88,6,1,10,0.00
2014-7-16,86.0,69.6,61.6,62.9,59.4,54.2,92,72,39,30.00,29.92,19,5,25,0.00
2014-7-17,78.6,67.3,58.1,60.1,57.0,54.4,90,71,52,29.98,29.91,18,5,27,0.00
2014-7-18,81.3,68.1,58.1,61.3,57.4,53.6,87,70,48,29.99,29.91,13,3,15,0.00
2014-7-19,87.2,70.6,60.6,62.4,59.0,56.1,88,69,41,29.93,29.89,9,2,12,0.00
2014-7-20,84.0,69.2,61.3,63.6,59.8,57.7,90,74,46,29.96,29.89,18,4,24,0.00
2014-7-21,82.0,68.2,60.0,61.3,58.0,54.0,90,71,49,30.02,29.95,22,6,26,0.00
2014-7-22,80.2,66.0,58.7,60.6,56.8,53.9,88,74,50,30.09,30.00,25,6,34,0.00
2014-7-23,86.0,70.2,58.4,63.3,57.3,52.7,88,66,36,30.12,30.02,11,3,16,0.00
2014-7-24,95.6,74.9,57.9,60.8,55.9,43.1,94,58,22,30.03,29.81,12,3,15,0.00
2014-7-25,100.7,80.4,61.9,62.5,51.7,35.2,88,43,15,29.85,29.79,12,3,15,0.00
2014-7-26,97.2,77.5,61.6,64.9,58.4,36.9,87,58,13,29.92,29.83,12,3,16,0.00
2014-7-27,94.8,74.6,61.9,64.1,59.2,41.6,89,64,18,29.96,29.89,10,2,13,0.00
2014-7-28,89.3,71.8,59.8,63.5,59.4,56.4,91,68,38,30.02,29.94,6,2,9,0.00
2014-7-29,91.9,73.6,59.5,64.3,59.4,56.0,92,66,34,30.03,29.95,5,2,8,0.00
2014-7-30,90.3,72.1,59.2,63.7,59.7,56.4,93,69,38,29.98,29.91,6,1,10,0.00
2014-7-31,92.4,72.2,58.0,64.3,59.6,55.8,94,69,38,29.95,29.86,5,1,8,0.00
2014-8-1,94.3,73.2,58.8,64.3,60.2,56.8,96,68,36,29.90,29.84,4,1,8,0.00
2014-8-2,82.7,67.9,58.7,62.0,58.4,55.3,93,74,48,29.92,29.86,5,2,8,0.00
2014-8-3,81.8,67.0,59.3,60.6,57.5,55.4,90,74,47,29.94,29.88,6,2,10,0.00
2014-8-4,82.7,68.7,59.4,60.3,57.5,55.1,88,70,46,29.97,29.90,7,2,12,0.00
2014-8-5,89.2,69.6,58.5,63.6,58.6,55.5,91,71,41,30.05,29.96,9,2,12,0.00
2014-8-6,91.5,73.4,61.5,65.7,60.4,56.5,90,67,38,30.00,29.91,18,3,21,0.01
2014-8-7,83.8,69.2,58.8,62.5,59.1,55.6,91,73,47,29.94,29.87,6,2,9,0.00
2014-8-8,88.8,69.6,56.6,61.4,56.5,47.5,94,68,33,29.91,29.85,10,2,13,0.00
2014-8-9,81.7,66.3,55.5,59.7,55.5,51.0,90,70,46,29.96,29.87,6,2,9,0.00
2014-8-10,83.2,66.5,53.4,60.2,55.4,50.2,91,70,44,29.98,29.90,9,2,12,0.00
2014-8-11,84.5,69.0,59.2,61.7,58.0,55.6,89,71,42,29.93,29.86,10,2,14,0.00
2014-8-12,83.6,67.5,56.1,60.0,56.5,52.9,90,71,43,29.96,29.89,10,2,12,0.00
2014-8-13,84.9,69.4,55.6,60.6,57.0,52.2,91,68,41,29.98,29.90,10,3,14,0.00
2014-8-14,88.1,69.5,57.7,62.5,57.5,47.9,95,71,28,29.94,29.86,10,2,14,0.00
2014-8-15,88.9,69.8,57.7,62.3,58.6,55.5,95,72,38,29.98,29.91,9,2,12,0.00
2014-8-16,88.0,69.7,57.9,62.6,58.0,54.1,90,70,41,30.02,29.93,8,2,10,0.00
2014-8-17,86.1,67.9,56.5,61.9,57.3,54.0,92,72,44,30.01,29.89,6,2,8,0.00
2014-8-18,81.0,66.8,57.7,61.7,57.6,53.3,92,74,51,29.90,29.79,6,2,9,0.00
2014-8-19,80.5,66.3,56.1,60.7,56.6,52.7,90,73,50,29.85,29.77,16,5,22,0.00
2014-8-20,82.9,68.0,56.9,60.1,56.3,53.4,89,69,42,29.90,29.82,17,4,23,0.00
2014-8-21,86.1,70.4,58.4,62.8,58.6,55.0,90,70,41,29.93,29.87,10,2,12,0.00
2014-8-22,83.2,68.5,57.8,62.0,57.6,53.0,94,72,44,29.91,29.85,16,4,20,0.00
2014-8-23,82.4,67.9,57.6,58.8,55.6,53.1,89,68,42,29.93,29.82,11,2,14,0.00
2014-8-24,82.2,68.5,59.5,60.2,57.2,54.6,88,70,44,29.88,29.79,12,2,16,0.00
2014-8-25,79.0,63.2,56.2,58.4,54.7,52.3,89,75,48,29.93,29.81,18,7,25,0.00
2014-8-26,83.3,67.8,55.3,60.0,56.4,52.4,91,70,43,30.00,29.92,5,2,9,0.00
2014-8-27,90.2,71.5,58.9,63.4,58.9,51.3,93,69,29,30.04,29.97,11,2,15,0.00
2014-8-28,92.0,70.0,58.1,62.4,58.6,55.8,94,72,33,30.05,29.91,6,2,8,0.00
2014-8-29,90.3,69.0,58.6,64.1,59.1,51.6,93,73,40,29.94,29.86,11,2,16,0.00
2014-8-30,93.8,75.5,61.9,63.2,53.1,41.2,87,49,21,29.90,29.84,13,3,16,0.00
2014-8-31,88.9,72.3,59.8,62.2,57.1,51.7,88,62,31,29.90,29.81,10,2,12,0.00
2014-9-1,96.6,75.4,58.9,61.8,56.9,50.7,90,60,24,29.83,29.73,6,2,9,0.00
2014-9-2,85.2,70.6,58.7,62.7,59.7,56.4,93,71,43,29.81,29.74,7,2,12,0.00
2014-9-3,86.3,68.5,58.6,60.9,57.5,54.4,89,71,42,29.77,29.68,8,2,10,0.00
2014-9-4,85.3,68.8,59.3,61.8,58.3,55.6,92,72,45,29.77,29.68,7,1,10,0.00
2014-9-5,81.5,67.6,58.2,60.8,57.3,54.2,89,72,47,29.89,29.77,8,2,10,0.00
2014-9-6,81.5,65.8,55.9,60.2,56.0,52.0,90,73,47,29.94,29.85,7,2,10,0.00
2014-9-7,79.9,64.5,54.9,57.9,54.7,51.8,91,73,46,29.89,29.78,8,2,9,0.00
2014-9-8,74.8,62.7,53.7,55.6,53.2,49.6,92,73,50,29.93,29.82,7,2,10,0.00
2014-9-9,83.3,64.1,51.1,60.4,53.8,48.6,93,73,45,29.99,29.89,6,1,8,0.00
2014-9-10,96.7,71.5,55.3,61.7,55.6,45.7,97,66,18,29.93,29.81,7,1,8,0.00
2014-9-11,96.5,76.4,59.9,62.1,54.7,42.1,89,52,18,29.88,29.79,7,2,12,0.00
2014-9-12,94.3,73.2,58.2,63.1,57.8,39.7,95,63,32,29.87,29.77,6,2,9,0.00
2014-9-13,90.1,69.7,58.3,64.1,58.7,55.8,94,72,39,29.83,29.75,5,2,8,0.00
2014-9-14,86.0,70.2,58.5,62.4,57.8,52.8,94,69,39,29.83,29.78,6,2,12,0.00
2014-9-15,83.2,68.2,57.4,61.9,55.8,49.1,94,68,37,29.92,29.81,9,3,12,0.00
2014-9-16,87.8,70.0,57.5,59.0,54.7,49.5,87,61,33,29.92,29.78,6,2,10,0.00
2014-9-17,85.3,69.9,59.9,62.3,57.6,45.8,92,69,29,29.80,29.72,22,4,29,0.00
2014-9-18,80.8,68.4,61.9,62.8,60.2,56.3,91,76,46,29.88,29.75,21,6,30,0.01
2014-9-19,84.5,69.0,58.8,64.8,59.9,55.6,93,75,47,29.90,29.82,12,2,15,0.00
2014-9-20,83.6,68.9,61.0,64.1,60.4,56.6,93,77,47,29.93,29.85,12,1,15,0.00
2014-9-21,79.6,66.0,58.2,61.9,57.9,55.1,91,77,53,30.00,29.89,17,4,22,0.00
2014-9-22,84.8,67.7,59.5,61.3,57.6,55.0,89,72,44,30.03,29.93,6,2,10,0.00
2014-9-23,83.6,68.4,57.0,63.1,58.6,54.6,93,74,49,29.99,29.89,11,2,13,0.00
2014-9-24,85.0,67.9,59.4,64.3,60.2,56.6,91,78,48,29.95,29.85,18,5,28,0.00
2014-9-25,72.3,62.9,56.9,62.1,57.2,52.1,96,83,57,30.00,29.87,11,3,15,0.54
2014-9-26,73.2,63.1,57.1,57.8,54.2,51.4,88,74,51,29.99,29.90,19,5,25,0.00
2014-9-27,71.5,62.2,57.2,57.5,54.6,52.5,89,77,59,29.92,29.81,22,9,26,0.00
2014-9-28,76.3,63.7,55.1,60.3,55.8,52.1,91,77,54,29.94,29.80,13,5,17,0.00
2014-9-29,78.1,64.6,55.7,61.2,56.8,53.3,94,78,56,30.02,29.94,6,2,8,0.00
2014-9-30,80.1,66.2,55.6,59.0,55.1,51.2,93,70,41,29.98,29.83,11,3,13,0.00
2014-10-1,86.2,72.4,60.7,52.6,43.8,34.3,72,40,16,29.92,29.83,7,2,12,0.00
2014-10-2,93.2,79.1,66.7,42.9,38.0,32.6,35,24,15,30.01,29.91,7,2,10,0.00
2014-10-3,96.8,81.7,67.0,54.2,41.7,31.7,46,26,14,30.06,29.97,8,2,10,0.00
2014-10-4,98.5,83.9,71.1,47.5,33.8,26.3,23,17,10,30.01,29.89,8,2,10,0.00
2014-10-5,98.1,81.6,70.7,54.5,39.8,23.4,40,24,13,29.92,29.84,8,2,9,0.00
2014-10-6,95.5,77.0,59.0,61.9,52.4,29.8,90,46,23,29.89,29.81,7,2,8,0.00
2014-10-7,90.5,70.0,56.4,61.3,54.5,28.0,95,64,20,29.90,29.82,7,2,8,0.00
2014-10-8,93.5,73.0,57.0,62.3,52.6,40.8,94,56,18,29.90,29.83,11,3,16,0.00
2014-10-9,82.0,65.8,56.3,60.9,56.7,47.3,96,75,48,29.97,29.88,6,2,8,0.00
2014-10-10,77.4,63.8,54.6,58.6,55.3,52.3,94,76,52,30.05,29.97,8,2,10,0.00
2014-10-11,84.2,65.3,52.6,58.4,54.4,51.2,96,72,36,30.05,29.95,7,2,8,0.00
2014-10-12,91.4,76.8,58.7,55.7,36.9,20.9,89,30,10,30.00,29.88,12,3,12,0.00
2014-10-13,92.9,77.8,58.1,56.7,36.6,18.7,92,30,11,29.93,29.86,15,3,21,0.00
2014-10-14,69.2,61.6,55.5,57.0,54.8,53.0,94,79,61,29.90,29.79,27,4,32,0.00
2014-10-15,73.5,63.7,57.4,56.8,53.8,49.1,84,71,50,30.01,29.83,20,5,26,0.00
2014-10-16,76.0,62.1,55.2,51.8,47.1,39.0,76,59,38,30.02,29.92,15,3,22,0.00
2014-10-17,75.8,64.5,55.2,54.4,48.1,41.2,71,56,42,29.97,29.90,14,4,20,0.00
2014-10-18,81.0,67.8,59.3,57.3,54.5,52.5,88,65,40,29.97,29.85,8,3,12,0.00
2014-10-19,79.6,65.1,57.8,61.5,57.4,54.5,93,78,51,29.90,29.83,16,3,18,0.00
2014-10-20,69.8,60.5,56.1,59.9,54.2,50.0,90,80,62,30.06,29.88,17,6,20,0.00
2014-10-21,72.2,60.8,52.4,53.5,47.7,42.0,91,65,34,30.10,30.00,10,4,14,0.00
2014-10-22,77.8,63.9,54.5,53.4,50.2,46.1,79,63,41,30.08,30.00,7,2,10,0.00
2014-10-23,77.3,65.5,57.4,58.4,54.9,49.6,91,70,47,30.06,29.95,5,1,9,0.00
2014-10-24,79.0,64.2,55.9,59.0,55.2,52.5,93,74,50,29.96,29.86,16,4,21,0.00
2014-10-25,69.8,61.2,55.9,58.4,54.8,52.1,93,80,60,30.13,29.88,20,8,28,0.19
2014-10-26,68.8,59.5,53.7,52.5,46.8,39.3,89,65,35,30.16,30.04,12,6,18,0.00
2014-10-27,72.1,60.5,51.4,52.8,48.1,44.1,90,65,39,30.06,29.99,10,3,12,0.00
2014-10-28,78.7,64.0,53.2,50.3,45.4,35.7,78,53,23,30.11,30.03,7,2,12,0.00
2014-10-29,83.8,69.2,57.6,55.0,47.6,44.6,70,48,26,30.10,29.96,6,1,9,0.00
2014-10-30,79.9,67.5,58.4,56.3,48.9,42.8,78,53,27,29.96,29.84,13,3,18,0.00
2014-10-31,61.7,56.5,51.6,57.5,52.2,48.7,94,86,77,29.89,29.71,11,4,16,0.20
2014-11-1,61.1,53.2,48.6,51.3,48.0,45.6,95,83,63,30.03,29.73,18,8,21,0.25
2014-11-2,66.9,56.9,48.1,51.9,44.4,37.4,93,65,43,30.16,30.03,10,3,15,0.00
2014-11-3,72.1,59.3,51.3,47.4,42.5,36.5,76,56,28,30.25,30.15,10,3,12,0.00
2014-11-4,73.6,61.1,51.7,54.2,47.3,40.6,94,64,34,30.31,30.21,5,1,9,0.00
2014-11-5,78.9,67.6,59.4,49.8,45.4,38.6,61,45,35,30.23,30.06,5,2,10,0.00
2014-11-6,77.5,65.7,57.6,56.0,51.4,46.3,79,61,39,30.20,30.11,6,2,7,0.00
2014-11-7,76.4,64.5,56.8,58.7,53.0,46.1,80,67,52,30.21,30.08,6,1,8,0.00
2014-11-8,80.8,67.4,57.6,57.1,51.8,48.9,79,59,37,30.10,29.99,5,1,6,0.00
2014-11-9,81.6,66.3,57.1,58.5,52.7,45.8,80,63,40,30.01,29.80,8,2,9,0.00
2014-11-10,76.3,61.3,51.6,58.2,52.1,43.5,92,74,48,29.83,29.77,7,2,10,0.00
2014-11-11,67.9,57.4,52.0,50.8,48.1,45.4,90,72,52,29.97,29.82,17,7,23,0.00
2014-11-12,68.0,58.5,53.6,50.9,47.0,45.2,85,66,49,30.01,29.94,11,3,15,0.05
2014-11-13,64.1,58.4,52.7,58.9,54.5,50.5,95,87,75,30.07,29.91,14,5,18,0.10
2014-11-14,65.5,57.5,52.2,54.5,50.4,46.5,93,78,61,30.10,30.05,12,4,14,0.00
2014-11-15,68.2,58.0,51.4,52.3,47.8,45.3,89,70,47,30.17,30.08,13,4,16,0.00
2014-11-16,64.3,55.3,50.2,51.2,34.3,22.8,92,50,21,30.26,30.17,6,2,9,0.00
2014-11-17,67.9,55.6,46.8,44.2,36.7,32.6,86,51,31,30.24,30.09,7,2,12,0.00
2014-11-18,67.5,57.4,49.6,43.9,39.6,35.3,64,52,39,30.13,30.04,8,2,10,0.00
2014-11-19,65.3,58.3,53.6,56.0,48.6,34.3,93,72,43,30.12,29.98,31,7,38,0.03
2014-11-20,57.5,53.7,50.4,55.4,51.1,48.5,95,91,80,30.11,29.98,11,3,14,0.21
2014-11-21,65.2,55.8,50.2,54.2,50.7,47.9,95,84,66,30.13,30.02,10,2,12,0.00
2014-11-22,63.5,58.1,52.4,60.0,52.8,46.0,95,83,66,30.24,30.05,22,10,28,0.09
2014-11-23,65.7,55.5,48.4,47.3,43.8,36.3,89,67,41,30.33,30.23,10,3,12,0.00
2014-11-24,68.8,58.2,48.0,40.4,36.4,29.1,73,45,31,30.41,30.31,6,2,8,0.00
2014-11-25,69.4,59.0,50.7,44.7,40.1,29.3,72,51,33,30.44,30.31,5,1,8,0.00
2014-11-26,73.1,60.2,51.0,49.7,45.7,41.7,75,60,41,30.31,30.19,11,2,13,0.00
2014-11-27,75.4,61.3,51.6,53.1,47.0,30.4,88,61,30,30.19,30.03,6,1,7,0.00
2014-11-28,66.9,54.2,43.8,51.6,47.8,39.1,95,80,53,30.05,29.84,9,2,13,0.00
2014-11-29,63.7,57.9,54.9,58.4,54.6,49.8,95,89,78,29.86,29.73,13,2,24,0.27
2014-11-30,58.6,54.4,48.3,56.5,50.4,38.1,96,87,55,30.02,29.73,11,4,17,0.66
2014-12-1,66.1,58.5,54.5,59.6,55.1,52.2,95,89,72,30.11,29.92,13,2,17,0.01
2014-12-2,58.6,55.3,52.4,56.7,53.9,51.3,97,95,89,29.93,29.66,21,5,26,1.44
2014-12-3,60.5,58.0,55.8,57.8,56.2,54.4,96,94,89,29.88,29.68,35,11,54,1.63
2014-12-4,67.0,59.2,55.6,60.3,55.3,52.8,96,87,70,30.01,29.87,11,3,13,0.07
2014-12-5,62.4,58.5,56.0,59.2,56.1,54.0,94,92,84,30.07,29.97,13,3,19,0.13
2014-12-6,67.5,59.4,56.3,60.8,56.7,54.7,97,91,73,30.21,30.07,8,2,12,0.28
2014-12-7,63.6,57.3,54.2,59.0,54.6,50.6,96,91,81,30.20,30.11,8,2,15,0.00
2014-12-8,69.3,59.1,54.6,60.1,54.3,51.1,91,84,70,30.17,30.14,7,2,8,0.00
2014-12-9,65.8,58.5,55.0,59.2,55.8,53.3,96,91,78,30.19,30.06,8,2,11,0.00
2014-12-10,64.4,57.5,52.0,57.4,54.0,50.9,97,88,73,30.06,29.71,35,9,47,0.00
2014-12-11,60.4,54.1,47.3,57.0,52.0,46.5,97,93,81,29.72,29.50,41,10,60,1.89
2014-12-12,53.4,48.5,45.2,52.6,47.4,44.4,97,96,93,30.08,29.64,10,3,12,1.65
2014-12-13,57.0,49.8,46.7,51.8,47.1,43.6,97,91,78,30.22,30.08,9,2,10,0.09
2014-12-14,61.0,51.2,45.1,50.4,45.7,43.2,94,82,62,30.14,29.97,9,2,15,0.09
2014-12-15,54.0,49.8,47.2,52.1,48.0,45.8,97,93,86,29.97,29.82,19,4,26,0.82
2014-12-16,60.0,52.0,47.6,51.3,48.3,46.1,96,87,71,29.96,29.80,24,6,31,0.76
2014-12-17,54.0,49.7,47.3,50.3,47.4,45.3,96,92,80,30.09,29.93,14,5,18,0.20
2014-12-18,62.2,53.5,47.4,54.3,49.0,45.9,95,85,70,30.18,30.04,12,3,16,0.01
2014-12-19,56.0,53.8,51.6,53.7,51.3,48.2,96,92,85,30.16,30.09,18,4,26,0.15
2014-12-20,60.1,55.4,51.9,55.6,52.2,49.4,97,89,77,30.26,30.11,11,2,18,0.03
2014-12-21,63.1,58.1,55.5,59.0,55.8,53.5,96,92,85,30.33,30.24,11,2,13,0.00
2014-12-22,65.2,58.2,54.2,57.4,54.7,52.8,96,88,73,30.28,30.17,8,2,10,0.00
2014-12-23,70.9,61.0,54.9,54.3,51.6,47.3,92,73,52,30.22,30.10,6,2,8,0.01
2014-12-24,57.5,51.1,45.8,53.2,47.3,38.3,97,87,75,30.11,29.95,22,7,33,0.04
2014-12-25,56.3,48.0,42.0,40.1,36.4,34.0,78,65,46,30.16,30.05,15,8,26,0.00
2014-12-26,56.7,48.3,42.0,38.3,32.4,28.3,77,56,36,30.26,30.10,10,4,16,0.00
2014-12-27,57.2,47.9,40.4,36.7,31.9,27.3,74,54,41,30.38,30.25,7,2,9,0.00
2014-12-28,59.8,49.0,41.1,44.7,40.3,35.7,87,73,48,30.35,30.23,9,2,10,0.00
2014-12-29,56.7,49.1,43.3,44.9,40.6,36.4,85,73,53,30.23,30.10,18,7,21,0.00
2014-12-30,51.7,44.6,38.4,37.7,27.4,17.6,85,54,34,30.24,30.09,15,5,25,0.00
2014-12-31,55.8,45.2,35.1,20.0,15.5,9.8,46,31,21,30.27,30.07,8,3,17,0.00
2015-1-1,57.0,47.4,40.3,26.8,20.2,13.5,42,34,27,30.16,30.07,8,3,12,0.00
2015-1-2,55.4,44.9,37.5,35.8,30.2,20.5,78,57,41,30.21,30.10,6,2,7,0.00